Regional Weather Roundup
Issued by NWS

Home | Current Version | Previous Version | Graphics & Text | Print | Product List | Glossary On
Versions: 1 2 3 4 5 6 7 8 9 10 11 12 13 14 15 16 17 18 19 20 21 22 23 24 25 26 27 28 29 30 31 32 33 34 35 36 37 38 39 40 41 42 43 44 45 46 47 48 49 50
428
ASUS45 KCYS 250410
RWRWY

WYOMING REGIONAL WEATHER ROUNDUP
NATIONAL WEATHER SERVICE CHEYENNE WY
1000 PM MDT TUE MAY 24 2016

NOTE:  "FAIR" INDICATES FEW OR NO CLOUDS BELOW 12,000 FEET
WITH NO SIGNIFICANT WEATHER AND/OR OBSTRUCTIONS TO VISIBILITY.

WYZ001-250500-
YELLOWSTONE NATIONAL PARK

CITY           SKY/WX    TMP DP  RH WIND       PRES   REMARKS
LK YELLOWSTONE   N/A     37  35  92 CALM      30.01R
W YELLOWSTONE  NOT AVBL

$$
WYZ002>013-054>058-071-098>099-250500-
NORTHERN WYOMING

CITY           SKY/WX    TMP DP  RH WIND       PRES   REMARKS
JACKSON        CLOUDY    39  37  93 SW5       29.99R
CODY           CLOUDY    48  45  87 CALM      29.92R
GREYBULL       LGT RAIN  54  49  83 N12       29.88S
WORLAND        CLOUDY    50  48  93 SW5       29.90R
SHERIDAN       MOCLDY    50  46  86 NW14      29.89S
BUFFALO        FAIR      49  43  80 NW7       29.91S
GILLETTE       CLOUDY    51  49  92 N7        29.90F
HULETT         MOCLDY    50  46  87 SW5       29.84S
NEWCASTLE      FAIR      52  41  66 NW5       29.85R

$$
WYZ014>020-022>026-101>103-250500-
CENTRAL WYOMING

CITY           SKY/WX    TMP DP  RH WIND       PRES   REMARKS
BIG PINEY      MOCLDY    39  37  92 SE5       30.03R
PINEDALE       FAIR      37  36  93 N6        30.03R WCI  33
DUBOIS         CLOUDY    41  32  70 NW6       29.97R
LANDER         FAIR      46  38  73 E8        29.91R
RIVERTON       FAIR      47  40  76 N3        29.93R
CASPER         MOCLDY    51  40  65 W6        29.90S
DOUGLAS        FAIR      55  40  56 W10       29.88R

$$
WYZ021-027>030-104>119-250500-
SOUTHERN WYOMING

CITY           SKY/WX    TMP DP  RH WIND       PRES   REMARKS
EVANSTON       FAIR      39  33  79 S7        30.01R WCI  34
KEMMERER         N/A     37  36  93 CALM      30.02S
FORT BRIDGER   CLEAR     39  39 100 S7        30.04S WCI  34
ROCK SPRINGS   FAIR      44  34  67 W15G23    30.02R
DIXON          CLOUDY    53  30  41 CALM      30.00R
RAWLINS        CLOUDY    50  34  54 S6        30.00R
SARATOGA       FAIR      43  34  70 W12       30.00F
LARAMIE        MOCLDY    50  34  54 N14       29.96R
CHEYENNE       FAIR      49  42  77 SW10      29.89R
TORRINGTON     FAIR      56  44  64 E16       29.82F
PINE BLUFFS    FAIR      45  45 100 W5        29.86S

$$




USA.gov is the U.S. government's official web portal to all federal, state and local government web resources and services.